LEAS Weather Reports


time (UTC)temp
C
wind
direction
speed
KPH
gust
KPH
rain 1hr
cm
rain 24hr
cm
rain mn
cm
humidity
%
barometer
mb
20260902054503 17 0 3.2 0.0 0.00 0.00 0.00 93 1022.0
20260902051503 18 0 3.2 0.0 0.00 0.00 0.00 88 1022.0
20260902041504 17 0 3.2 0.0 0.00 0.00 0.00 93 1022.0
20260902010003 17 180 3.2 0.0 0.00 0.00 0.00 100 1022.0
20260901230003 17 100 3.2 0.0 0.00 0.00 0.00 93 1023.0
20260901224503 17 100 3.2 0.0 0.00 0.00 0.00 93 1023.0
20260901223004 17 0 1.6 0.0 0.00 0.00 0.00 93 1022.0
20260901221503 17 0 1.6 0.0 0.00 0.00 0.00 93 1022.0
20260901214503 18 0 1.6 0.0 0.00 0.00 0.00 88 1022.0
20260901213003 18 90 8.0 0.0 0.00 0.00 0.00 88 1022.0
20260901204503 18 100 9.7 0.0 0.00 0.00 0.00 88 1022.0
20260901203004 20 80 8.0 0.0 0.00 0.00 0.00 82 1022.0
20260901200004 20 90 11.3 0.0 0.00 0.00 0.00 82 1022.0
20260901193003 20 90 11.3 0.0 0.00 0.00 0.00 82 1022.0
20260901191502 20 90 11.3 0.0 0.00 0.00 0.00 82 1022.0
20260901190004 21 100 14.5 0.0 0.00 0.00 0.00 77 1022.0
20260901184502 21 100 14.5 0.0 0.00 0.00 0.00 77 1022.0
20260901181503 22 90 1.6 0.0 0.00 0.00 0.00 73 1022.0
20260901161503 22 60 1.6 0.0 0.00 0.00 0.00 68 1021.0
20260901160003 22 60 14.5 0.0 0.00 0.00 0.00 68 1020.0
20260901154503 22 60 14.5 0.0 0.00 0.00 0.00 68 1020.0
20260901143003 23 60 1.6 0.0 0.00 0.00 0.00 64 1021.0
20260901133004 22 60 1.6 0.0 0.00 0.00 0.00 73 1021.0
20260901130003 22 80 12.9 0.0 0.00 0.00 0.00 68 1022.0
20260901123004 22 70 12.9 0.0 0.00 0.00 0.00 68 1022.0
20260901121503 22 70 12.9 0.0 0.00 0.00 0.00 68 1022.0
20260901110004 22 100 9.7 0.0 0.00 0.00 0.00 68 1022.0
20260901104504 22 100 9.7 0.0 0.00 0.00 0.00 68 1022.0
20260901103004 21 70 8.0 0.0 0.00 0.00 0.00 64 1022.0
20260901100004 22 100 4.8 0.0 0.00 0.00 0.00 64 1022.0
20260901093003 21 100 4.8 0.0 0.00 0.00 0.00 68 1022.0
20260901090004 20 150 8.0 0.0 0.00 0.00 0.00 77 1021.0
20260901084504 20 150 8.0 0.0 0.00 0.00 0.00 77 1021.0
20260901081503 17 160 4.8 0.0 0.00 0.00 0.00 88 1021.0
20260901073003 17 0 3.2 0.0 0.00 0.00 0.00 88 1021.0
20260901071503 17 0 3.2 0.0 0.00 0.00 0.00 88 1021.0